Denison, IA

5:11 PM CDT on September 26, 2016 (GMT -0500)
Denison Municipal

Weather History for KDNS - February, 2013

Change the Weather History Date:

Sunday, February 3, 2013

  Actual Average Record
Temperature  
Mean Temperature 26 °F -  
Max Temperature 37 °F 32 °F 59 °F (2005)
Min Temperature 14 °F 17 °F -7 °F (2007)
Degree Days  
Heating Degree Days 40    
Moisture  
Dew Point 19 °F    
Average Humidity 71    
Maximum Humidity 86    
Minimum Humidity 52    
Precipitation  
Precipitation 0.00 in - - ()
Sea Level Pressure  
Sea Level Pressure 30.00 in    
Wind  
Wind Speed 14 mph (SW)    
Max Wind Speed 25 mph    
Max Gust Speed 36 mph    
Visibility 10 miles    
Events Snow    
Averages and records for this station are not official NWS values.
T = Trace of Precipitation, MM = Missing Value Source: NWS Daily Summary

Daily Weather History Graph

Daily Weather History Graph

Search for Another Location

Airport or City:

Trip Planner

Search our weather history database for the weather conditions in past years. The results will help you decide how hot, cold, wet, or windy it might be!

Date:

Astronomy

Feb. 03, 2013 Rise Set
Actual Time 7:31 AM CST 5:39 PM CST
Civil Twilight 7:02 AM CST 6:08 PM CST
Nautical Twilight 6:29 AM CST 6:42 PM CST
Astronomical Twilight 5:56 AM CST 7:14 PM CST
Moon 1:00 AM CST (2/3) 11:16 AM CST (2/3)
Length of Visible Light 11h 06m
Length of Day
10h 07m
Waning Gibbous, 48% of the Moon is Illuminated
Feb 3
Waning Gibbous
Feb 10
New
Feb 17
First Quarter
Feb 25
Full
Mar 4
Last Quarter

Hourly Weather History & Observations

Time (CST) Temp. Windchill Dew Point Humidity Pressure Visibility Wind Dir Wind Speed Gust Speed Precip Events Conditions
12:15 AM 26.6 °F 12.4 °F 17.6 °F 69% 30.09 in 10.0 mi NW 21.9 mph 35.7 mph N/A   Partly Cloudy
12:35 AM 24.8 °F 9.0 °F 15.8 °F 69% 30.10 in 10.0 mi NW 25.3 mph 32.2 mph N/A   Clear
12:55 AM 24.8 °F 11.9 °F 15.8 °F 69% 30.11 in 10.0 mi NW 16.1 mph 25.3 mph N/A   Clear
1:15 AM 23.0 °F 8.0 °F 15.8 °F 74% 30.11 in 10.0 mi NW 20.7 mph 28.8 mph N/A   Clear
1:35 AM 23.0 °F 9.6 °F 15.8 °F 74% 30.12 in 10.0 mi NW 16.1 mph 26.5 mph N/A   Scattered Clouds
1:55 AM 23.0 °F 8.7 °F 15.8 °F 74% 30.13 in 10.0 mi NW 18.4 mph - N/A   Partly Cloudy
2:15 AM 23.0 °F 10.1 °F 15.8 °F 74% 30.14 in 10.0 mi NW 15.0 mph 21.9 mph N/A   Mostly Cloudy
2:35 AM 23.0 °F 8.7 °F 17.6 °F 80% 30.15 in 10.0 mi NW 18.4 mph - N/A   Overcast
2:55 AM 21.2 °F 6.8 °F 15.8 °F 80% 30.14 in 10.0 mi NW 17.3 mph 26.5 mph N/A   Mostly Cloudy
3:15 AM 21.2 °F 6.4 °F 15.8 °F 80% 30.15 in 10.0 mi NW 18.4 mph 31.1 mph N/A   Mostly Cloudy
3:35 AM 19.4 °F 5.0 °F 14.0 °F 80% 30.14 in 10.0 mi NW 16.1 mph 25.3 mph N/A   Scattered Clouds
3:55 AM 19.4 °F 6.6 °F 12.2 °F 74% 30.14 in 10.0 mi NW 12.7 mph 23.0 mph N/A   Clear
4:15 AM 19.4 °F 7.9 °F 12.2 °F 74% 30.15 in 10.0 mi NW 10.4 mph 19.6 mph N/A   Clear
4:35 AM 17.6 °F 6.4 °F 12.2 °F 79% 30.15 in 10.0 mi NW 9.2 mph - N/A   Clear
4:55 AM 17.6 °F 5.7 °F 12.2 °F 79% 30.16 in 10.0 mi NW 10.4 mph - N/A   Clear
5:15 AM 17.6 °F 2.2 °F 12.2 °F 79% 30.16 in 10.0 mi WNW 17.3 mph - N/A   Clear
5:35 AM 17.6 °F 3.7 °F 10.4 °F 73% 30.17 in 10.0 mi NW 13.8 mph - N/A   Clear
5:55 AM 17.6 °F 3.7 °F 10.4 °F 73% 30.17 in 10.0 mi WNW 13.8 mph 20.7 mph N/A   Clear
6:15 AM 17.6 °F 5.7 °F 10.4 °F 73% 30.17 in 10.0 mi WNW 10.4 mph 19.6 mph N/A   Clear
6:35 AM 15.8 °F 7.2 °F 10.4 °F 79% 30.17 in 10.0 mi WNW 5.8 mph - N/A   Clear
6:55 AM 15.8 °F - 10.4 °F 79% 30.16 in 10.0 mi Calm Calm - N/A   Clear
7:15 AM 15.8 °F - 10.4 °F 79% 30.16 in 10.0 mi Calm Calm - N/A   Clear
7:35 AM 14.0 °F 6.5 °F 10.4 °F 86% 30.15 in 10.0 mi SW 4.6 mph - N/A   Clear
7:55 AM 15.8 °F 7.2 °F 10.4 °F 79% 30.15 in 10.0 mi WSW 5.8 mph - N/A Snow Light Snow
8:35 AM 19.4 °F 12.8 °F 12.2 °F 74% 30.15 in 10.0 mi West 4.6 mph - N/A   Scattered Clouds
8:55 AM 19.4 °F 9.5 °F 12.2 °F 74% 30.15 in 10.0 mi WSW 8.1 mph - N/A   Overcast
9:15 AM 19.4 °F 10.4 °F 14.0 °F 80% 30.16 in 10.0 mi WSW 6.9 mph - N/A   Overcast
9:35 AM 21.2 °F 11.7 °F 14.0 °F 74% 30.15 in 10.0 mi WSW 8.1 mph - N/A   Overcast
9:55 AM 21.2 °F 8.9 °F 14.0 °F 74% 30.12 in 10.0 mi WSW 12.7 mph - N/A   Mostly Cloudy
10:15 AM 23.0 °F 12.4 °F 14.0 °F 68% 30.12 in 10.0 mi WSW 10.4 mph - N/A   Clear
10:35 AM 24.8 °F 14.6 °F 15.8 °F 69% 30.13 in 10.0 mi SW 10.4 mph - N/A   Clear
10:55 AM 26.6 °F 16.2 °F 15.8 °F 64% 30.12 in 10.0 mi SW 11.5 mph - N/A   Clear
11:15 AM 28.4 °F 18.5 °F 17.6 °F 64% 30.11 in 10.0 mi SW 11.5 mph - N/A   Clear
11:35 AM 28.4 °F 20.4 °F 17.6 °F 64% 30.10 in 10.0 mi SW 8.1 mph - N/A   Clear
11:55 AM 30.2 °F 22.6 °F 17.6 °F 60% 30.08 in 10.0 mi SSW 8.1 mph - N/A   Clear
12:15 PM 32.0 °F 23.0 °F 19.4 °F 60% 30.07 in 10.0 mi SSW 11.5 mph - N/A   Clear
12:35 PM 32.0 °F 22.5 °F 17.6 °F 55% 30.05 in 10.0 mi SSW 12.7 mph - N/A   Clear
12:55 PM 33.8 °F 25.3 °F 17.6 °F 52% 30.03 in 10.0 mi SSW 11.5 mph - N/A   Clear
1:15 PM 35.6 °F 26.2 °F 19.4 °F 52% 30.01 in 10.0 mi SSW 15.0 mph - N/A   Clear
1:35 PM 35.6 °F 25.9 °F 19.4 °F 52% 30.00 in 10.0 mi SSW 16.1 mph 23.0 mph N/A   Clear
1:55 PM 35.6 °F 25.9 °F 19.4 °F 52% 29.98 in 10.0 mi SSW 16.1 mph - N/A   Clear
2:15 PM 35.6 °F 25.5 °F 19.4 °F 52% 29.97 in 10.0 mi SSW 17.3 mph 25.3 mph N/A   Clear
2:35 PM 37.4 °F 27.8 °F 21.2 °F 52% 29.95 in 10.0 mi SSW 17.3 mph 26.5 mph N/A   Clear
2:55 PM 35.6 °F 26.2 °F 21.2 °F 56% 29.94 in 10.0 mi SSW 15.0 mph 27.6 mph N/A   Clear
3:15 PM 37.4 °F 28.2 °F 23.0 °F 56% 29.93 in 10.0 mi SSW 16.1 mph 24.2 mph N/A   Clear
3:35 PM 37.4 °F 26.6 °F 24.8 °F 60% 29.91 in 10.0 mi SSW 21.9 mph - N/A   Clear
3:55 PM 37.4 °F 27.8 °F 24.8 °F 60% 29.92 in 10.0 mi SSW 17.3 mph 25.3 mph N/A   Clear
4:15 PM 37.4 °F 27.5 °F 26.6 °F 65% 29.91 in 10.0 mi SSW 18.4 mph - N/A   Clear
4:35 PM 37.4 °F 28.2 °F 24.8 °F 60% 29.89 in 10.0 mi SSW 16.1 mph 24.2 mph N/A   Clear
4:55 PM 37.4 °F 29.3 °F 26.6 °F 65% 29.88 in 10.0 mi SSW 12.7 mph 20.7 mph N/A   Clear
5:15 PM 35.6 °F 27.5 °F 26.6 °F 70% 29.88 in 10.0 mi SSW 11.5 mph - N/A   Clear
5:35 PM 33.8 °F 25.8 °F 26.6 °F 75% 29.87 in 10.0 mi South 10.4 mph - N/A   Clear
5:55 PM 33.8 °F 25.8 °F 26.6 °F 75% 29.87 in 10.0 mi South 10.4 mph - N/A   Clear
6:15 PM 33.8 °F 25.3 °F 26.6 °F 75% 29.86 in 10.0 mi South 11.5 mph - N/A   Clear
6:35 PM 32.0 °F 23.6 °F 26.6 °F 80% 29.86 in 10.0 mi South 10.4 mph - N/A   Clear
6:55 PM 32.0 °F 22.5 °F 26.6 °F 80% 29.84 in 10.0 mi South 12.7 mph - N/A   Clear
7:15 PM 33.8 °F 24.3 °F 26.6 °F 75% 29.84 in 10.0 mi South 13.8 mph - N/A   Clear
7:35 PM 33.8 °F 24.3 °F 26.6 °F 75% 29.83 in 10.0 mi South 13.8 mph 19.6 mph N/A   Clear
7:55 PM 33.8 °F 23.5 °F 26.6 °F 75% 29.82 in 10.0 mi South 16.1 mph - N/A   Clear
8:15 PM 32.0 °F 23.6 °F 26.6 °F 80% 29.82 in 10.0 mi SSW 10.4 mph 16.1 mph N/A   Clear
8:35 PM 33.8 °F 26.4 °F 26.6 °F 75% 29.81 in 10.0 mi SSW 9.2 mph - N/A   Clear
8:55 PM 33.8 °F 26.4 °F 26.6 °F 75% 29.80 in 10.0 mi SSW 9.2 mph - N/A   Clear
9:15 PM 33.8 °F 25.8 °F 26.6 °F 75% 29.79 in 10.0 mi SSW 10.4 mph - N/A   Clear
9:35 PM 35.6 °F 28.6 °F 28.4 °F 75% 29.79 in 10.0 mi SSW 9.2 mph - N/A   Clear
9:55 PM 35.6 °F 28.0 °F 28.4 °F 75% 29.78 in 10.0 mi SSW 10.4 mph - N/A   Clear
10:15 PM 35.6 °F 29.2 °F 28.4 °F 75% 29.77 in 10.0 mi SSW 8.1 mph - N/A   Clear
10:35 PM 35.6 °F 29.2 °F 28.4 °F 75% 29.77 in 10.0 mi SSW 8.1 mph - N/A   Clear
10:55 PM 35.6 °F 29.9 °F 28.4 °F 75% 29.77 in 10.0 mi SSW 6.9 mph - N/A   Clear
11:15 PM 35.6 °F 29.9 °F 28.4 °F 75% 29.76 in 10.0 mi SSW 6.9 mph - N/A   Clear
11:35 PM 35.6 °F 28.6 °F 28.4 °F 75% 29.76 in 10.0 mi SW 9.2 mph - N/A   Clear
11:55 PM 35.6 °F 29.2 °F 28.4 °F 75% 29.75 in 10.0 mi SW 8.1 mph - N/A   Partly Cloudy